Regional Weather Roundup
Issued by NWS Northern Indiana

Home | Current Version | Previous Version | Text Only | Print | Product List | Glossary On
Versions: 1 2 3 4 5 6 7 8 9 10 11 12 13 14 15 16 17 18 19 20 21 22 23 24 25 26 27 28 29 30 31 32 33 34 35 36 37 38 39 40 41 42 43 44 45 46 47 48 49 50
000
ASUS43 KIWX 301110
RWRIWX

KIWX WEATHER ROUNDUP
NATIONAL WEATHER SERVICE NORTHERN INDIANA
700 AM EDT SAT MAY 30 2015

NOTE: "FAIR" INDICATES FEW OR NO CLOUDS BELOW 12,000 FEET WITH NO
SIGNIFICANT WEATHER AND/OR OBSTRUCTIONS TO VISIBILITY.

* THESE STATIONS ARE NOT UNDER NWS QUALITY CONTROL. THEY ALSO MAY NOT
  REPORT WEATHER SUCH AS PRECIPITATION OR FOG.

INZ001>027-301200-
NORTHERN INDIANA

CITY           SKY/WX    TMP DP  RH WIND       PRES   REMARKS
VALPARAISO     LGT RAIN  68  66  93 NW7       29.98F FOG
MICHIGAN CITY* RAIN      68  68 100 SW6       29.99R
LAPORTE*       LGT RAIN  69  69 100 W3        29.99S
KNOX*          CLOUDY    66  66 100 S3        29.99R
SOUTH BEND     RAIN      68  66  93 SW9       29.99R FOG
GOSHEN         MOCLDY    69  65  86 SW9       29.99R
MONTICELLO*    CLOUDY    68  66  92 S5        30.00R
LOGANSPORT*    CLOUDY    68  63  83 S6        30.02R
ROCHESTER*     CLOUDY    72  68  88 SW6       30.01R
WARSAW*        MOCLDY    68  64  88 SW5       30.01R
ANGOLA*        MOCLDY    70  61  73 SW6       30.00R
FORT WAYNE     PTCLDY    68  65  90 S7        30.02R
HUNTINGTON*    CLEAR     67  64  92 CALM      30.01R
PERU/GRISSOM   CLOUDY    68  66  94 S6        30.00R
MARION*        CLEAR     65  64  93 S6        30.04R

$$
INZ028>050-301200-
CENTRAL INDIANA

CITY           SKY/WX    TMP DP  RH WIND       PRES   REMARKS
LAFAYETTE      CLOUDY    68  64  87 S5        30.00R
KOKOMO*        MOCLDY    66  64  94 SW7       30.02R
MUNCIE*        CLEAR     69  65  86 S7        30.04R
INDIANAPOLIS   PTCLDY    68  65  90 SE6       30.01R

$$
MIZ043>046-050>051-056>058-064>065-071>073-077>080-301200-
SOUTHWEST LOWER MICHIGAN

CITY           SKY/WX    TMP DP  RH WIND       PRES   REMARKS
BATTLE CREEK   CLOUDY    69  65  86 SW9       29.98R
BENTON HARBOR  CLOUDY    68  65  90 SW10      29.96R
COLDWATER*     MOCLDY    69  64  85 SW6       29.99R HAZE
HILLSDALE*     PTCLDY    69  67  94 S5        30.00R
HOLLAND        MOCLDY    61  59  93 SW6       29.96R FOG
GRAND RAPIDS   CLOUDY    68  65  90 SW6       29.95R
KALAMAZOO      CLOUDY    69  65  86 S8        29.97R
STURGIS*       CLOUDY    70  66  88 SW8       29.98S
THREE RIVERS*  CLOUDY    70  64  81 SW8       29.98R

$$
OHZ001>008-015>018-024>025-301200-
NORTHWEST OHIO

CITY           SKY/WX    TMP DP  RH WIND       PRES   REMARKS
WAUSEON*       FAIR      68  68 100 S10       30.01R
DEFIANCE       PTCLDY    69  64  84 S8        30.01R
FINDLAY        CLEAR     70  66  87 S9        30.03R
TOLEDO EXPRESS CLEAR     68  64  87 SW8       30.01R
TOLEDO METCALF PTCLDY    71  64  78 S8        30.02R
LIMA           CLEAR     69  66  90 S9        30.04R

$$
AND FOR LAKE MICHIGAN COASTAL AND OPEN LAKE BUOY OBSERVATIONS

STATION/POSITION TEMP    WIND        PRES    VSBY  WAVE
                 AIR SEA DIR/SP/G                  HT/PER
                 (F)     (DEG/KT/KT) (MB)    (MI)  (FT/S)
CALUMET HARBOR    68     220/  3/  6   N/A
MICHIGAN CITY     68     170/ 10/ 13   N/A
BURNS HARBOR      68     210/  9/ 11 1015.6S
SAINT JOSEPH      65     180/  8/ 10 1015.6R
SOUTH LAKE BUOY   47 38  230/  4/  6 1014.7R         1
4 MI NW BRIDGMAN  61 58  250/  8/ 10   N/A           1/ 3
MICHIGAN CITY     62 56  220/  8/  8   N/A           1

$$
&&


USA.gov is the U.S. government's official web portal to all federal, state and local government web resources and services.